Location: Lafig�re
(44.4503°N, 4.0357°E)
Time: 16:00:36
(UTC+00:00)

Meteor 2-19 Rocket - Pass Details

Date: 24 September 2020
Orbit: 935 x 959 km, 82.5° (Epoch: 25 October)

Event Time Altitude Azimuth Distance (km) Brightness Sun altitude
Rises 19:55:04 0° 353° (N) 3,630 7.9 -24.8°
Reaches altitude 10° 19:57:37 10° 357° (N) 2,677 7.1 -25.2°
Maximum altitude 20:03:41 63° 78° (ENE) 1,047 4.4 -26.1°
Enters shadow 20:03:47 63° 84° (E) 1,048 4.3 -26.2°
